Terminal Aerodrome Forecast
Issued by NWS Billings, MT

Home | Current Version | Previous Version | Graphics & Text | Print | Product List | Glossary On
Versions: 1 2 3 4 5 6 7 8 9 10 11 12 13 14 15 16 17 18 19 20 21 22 23 24 25 26 27 28 29 30 31 32 33 34 35
000
FTUS45 KBYZ 250222 AAB
TAFMLS
TAF AMD
KMLS 250222Z 2502/2524 01019G25KT P6SM SKC
     FM250300 34020G29KT P6SM SKC
     FM250500 32010KT P6SM SKC
     FM250900 27008KT P6SM SKC
     FM252100 27014G25KT P6SM SKC=

USA.gov is the U.S. government's official web portal to all federal, state and local government web resources and services.